Regional Weather Roundup
Issued by NWS Sterling, VA

Home | Current Version | Previous Version | Text Only | Print | Product List | Glossary Off
Versions: 1 2 3 4 5 6 7 8 9 10 11 12 13 14 15 16 17 18 19 20 21 22 23 24 25 26 27 28 29 30 31 32 33 34 35 36 37 38 39 40 41 42 43 44 45 46 47 48 49 50

000
ASUS41 KLWX 240110
RWRLWX

REGIONAL WEATHER ROUNDUP
NATIONAL WEATHER SERVICE BALTIMORE MD/WASHINGTON DC
900 PM EDT WED JUL 23 2014

Note: "FAIR" indicates few or no clouds below 12,000 feet
with no significant weather and/or obstructions to visibility.
 TC=TEMPERATURE CELSIUS

 * =Non NWS site. Station does not report precipitation (e.g. rain,
    snow, etc.), thunder, or fog.

DCZ001-MDZ009-015-VAZ040>042-051-053>054-240200-
WASHINGTON METRO
  /KDAA//-FT BELVOIR

CITY           SKY/WX    TMP DP  RH WIND       PRES   REMARKS
WASHINGTON NAT CLOUDY    84  68  58 NW6       29.86R
DULLES         CLOUDY    78  69  73 NW3       29.87S
ANDREWS AFB    CLOUDY    84  69  60 NW7       29.86R
QUANTICO       CLOUDY    85  68  56 NW10      29.86R THUNDER
COLLEGE PARK*  CLOUDY    81  68  65 CALM      29.86R
LEESBURG*      MOCLDY    73  73 100 SW5       29.89R
MANASSAS*      CLOUDY    81  70  69 CALM      29.87R
GAITHERSBURG*  MOCLDY    73  70  88 CALM      29.91R

$$

MDZ006>007-011-014-240200-
BALTIMORE METRO

CITY           SKY/WX    TMP DP  RH WIND       PRES   REMARKS
BWI AIRPORT    TSTM      76  71  85 CALM      29.84F
MD SCIENCE CTR   N/A     77  71  82 MISG      29.84F
MARTIN STATE   CLOUDY    75  73  94 NW7       29.87F
ANNAPOLIS      CLOUDY    83  77  82 CALM      29.85R HX  92
FORT MEADE*    CLOUDY    77  68  73 W3        29.88R

$$

MDZ012-015-019>023-240200-
MARYLAND EASTERN SHORE

CITY           SKY/WX    TMP DP  RH WIND       PRES   REMARKS
OCEAN CITY     CLEAR     79  75  87 SW9       29.87S
SALISBURY      NOT AVBL
BAY BRIDGE AP*   N/A     82  72  69 N9        29.84S
CAMBRIDGE*     CLOUDY    82  72  69 S6        29.84F

$$

MDZ017>025-240200-
SOUTHERN MARYLAND

CITY           SKY/WX    TMP DP  RH WIND       PRES   REMARKS
PATUXENT RIVER MOCLDY    82  76  81 SE6       29.84S
ST INIGOES     PTCLDY    83  75  77 SE6       29.84S HX  90
LEONARDTOWN*   PTCLDY    82  70  65 CALM      29.86S

$$

MDZ003>005-240200-
NORTH CENTRAL MARYLAND

CITY           SKY/WX    TMP DP  RH WIND       PRES   REMARKS
FREDERICK*     MOCLDY    75  72  88 CALM      29.89R
HAGERSTOWN APT MOCLDY    78  70  76 S5        29.88S
WESTMINSTER*   MOCLDY    73  72  94 CALM      29.89R

$$

MDZ501>502-240200-
WESTERN MARYLAND

CITY           SKY/WX    TMP DP  RH WIND       PRES   REMARKS
OAKLAND*       CLOUDY    68 N/A N/A W6        30.03S
CUMBERLAND*    CLEAR     82  64  54 NW3       29.95R

$$

VAZ025>031-240200-
SHENANDOAH VALLEY

CITY           SKY/WX    TMP DP  RH WIND       PRES   REMARKS
WINCHESTER*    MOCLDY    79  66  65 SW3       29.90S
STAUNTON*      CLOUDY    73  68  86 CALM      29.96R

$$

WVZ021-048>050-054>055-240200-
EASTERN WEST VIRGINIA PANHANDLE

CITY           SKY/WX    TMP DP  RH WIND       PRES   REMARKS
MARTINSBURG    MOCLDY    79  71  76 W7        29.88S
PETERSBURG*    MOCLDY    78  60  53 CALM      29.94R

$$

VAZ036>039-050-240200-
CENTRAL FOOTHILLS

CITY           SKY/WX    TMP DP  RH WIND       PRES   REMARKS
CHARLOTTESVILL CLOUDY    73  70  90 W3        29.89R FOG
ORANGE*        CLOUDY    73  68  83 CALM      29.90S

$$

VAZ055>057-240200-
NORTH AND CENTRAL PIEDMONT

CITY           SKY/WX    TMP DP  RH WIND       PRES   REMARKS
FREDERICKSBRG* CLOUDY    85  73  65 W13       29.84R HX  91
STAFFORD*      TSTM      81  73  77 NW14      29.90R

$$

NCZ024-NYZ072-PAZ021-071-VAZ022-071-240200-
OTHER REGIONAL OBSERVATIONS

CITY           SKY/WX    TMP DP  RH WIND       PRES   REMARKS
NEW YORK CITY  HVY RAIN  76  70  82 VRB5G25   29.86R VSB 1
PHILADELPHIA   TSTM      76  68  76 W13       29.88R
PITTSBURGH     CLOUDY    69  62  78 N15       29.99R
RICHMOND       PTCLDY    87  70  56 SW8       29.86F HX  92
RALEIGH        PTCLDY    79  69  71 SW8       29.93S

$$

ANZ530>537-240200-
MARINE OBSERVATIONS

STATION/POSITION TIME  TEMP    WIND        PRES
                       AIR SEA DIR/SP/G
                 (UTC) (F)     (DEG/KT/KT) (MB)
THOMAS PT LIGHT  0100   82 79  160/ 11/ 12 1010.6F
BALT KEY BRIDGE  0100   79     350/  1/  3 1011.0R
COVE POINT       0100   82     190/ 11/ 12 1010.3S
LEWISETTA        0100   85 84  200/  8/  9 1010.3S
SOLOMONS ISLAND  0100      83                N/A
PINEY POINT      0100          200/  5/  6   N/A

$$



USA.gov is the U.S. government's official web portal to all federal, state and local government web resources and services.